Time,TemperatureF,DewpointF,PressureIn,WindDirection,WindDirectionDegrees,WindSpeedMPH,WindSpeedGustMPH,Humidity,HourlyPrecipIn,Conditions,Clouds,dailyrainin,SoftwareType,DateUTC
2013-05-25 00:01:00,42.7,41.9,29.51,SE,130,0.4,2.3,97,0.02,RA,SCT,0.00,WeatherDisplay:10.37,2013-05-25 04:01:00,
2013-05-25 00:02:00,42.7,41.9,29.51,SE,137,0.7,2.3,97,0.02,RA,SCT,0.00,WeatherDisplay:10.37,2013-05-25 04:02:00,
2013-05-25 00:07:00,42.8,42.3,29.54,NNE,30,1.1,4.6,98,0.01,RA,SCT,0.00,WeatherDisplay:10.37,2013-05-25 04:07:00,
2013-05-25 00:12:00,42.7,41.9,29.53,NE,40,0.6,2.3,97,0.01,CLR,SCT,0.00,WeatherDisplay:10.37,2013-05-25 04:12:00,
2013-05-25 00:17:00,42.5,42.0,29.53,North,360,3.4,6.9,98,0.01,CLR,SCT,0.00,WeatherDisplay:10.37,2013-05-25 04:17:00,
2013-05-25 00:22:00,42.4,41.6,29.54,NW,321,1.8,3.5,97,0.01,CLR,SCT,0.00,WeatherDisplay:10.37,2013-05-25 04:22:00,
2013-05-25 00:27:00,42.4,41.9,29.55,WSW,239,1.1,3.5,98,0.01,CLR,SCT,0.00,WeatherDisplay:10.37,2013-05-25 04:27:00,
2013-05-25 00:32:00,42.4,41.9,29.56,WNW,293,1.7,3.5,98,0.01,CLR,SCT,0.00,WeatherDisplay:10.37,2013-05-25 04:32:00,
2013-05-25 00:37:00,42.3,41.5,29.54,NW,325,2.5,5.0,97,0.01,CLR,SCT,0.00,WeatherDisplay:10.37,2013-05-25 04:37:00,
2013-05-25 00:42:00,42.2,41.7,29.54,NW,324,2.2,4.6,98,0.00,CLR,SCT,0.00,WeatherDisplay:10.37,2013-05-25 04:42:00,
2013-05-25 00:47:00,42.2,41.7,29.53,NNW,336,2.6,5.0,98,0.00,CLR,SCT,0.00,WeatherDisplay:10.37,2013-05-25 04:47:00,
2013-05-25 00:52:00,42.0,41.2,29.53,NW,306,2.2,4.6,97,0.00,CLR,SCT,0.00,WeatherDisplay:10.37,2013-05-25 04:52:00,
2013-05-25 00:57:00,41.9,41.1,29.54,West,281,1.3,2.3,97,0.00,CLR,SCT,0.00,WeatherDisplay:10.37,2013-05-25 04:57:00,
2013-05-25 01:02:00,41.8,41.3,29.54,NNW,338,3.0,5.8,98,0.00,CLR,SCT,0.00,WeatherDisplay:10.37,2013-05-25 05:02:00,
2013-05-25 01:07:00,41.9,41.4,29.54,NW,321,1.2,3.5,98,0.00,CLR,SCT,0.00,WeatherDisplay:10.37,2013-05-25 05:07:00,
2013-05-25 01:12:00,41.9,41.4,29.53,NNW,331,2.7,5.8,98,0.00,CLR,SCT,0.00,WeatherDisplay:10.37,2013-05-25 05:12:00,
2013-05-25 01:17:00,41.7,40.9,29.55,NNW,327,3.0,6.9,97,0.00,CLR,SCT,0.00,WeatherDisplay:10.37,2013-05-25 05:17:00,
2013-05-25 01:22:00,41.8,41.0,29.55,NNW,328,2.2,4.0,97,0.00,CLR,SCT,0.00,WeatherDisplay:10.37,2013-05-25 05:22:00,
2013-05-25 01:27:00,41.8,41.0,29.55,NW,325,2.2,4.6,97,0.00,CLR,SCT,0.00,WeatherDisplay:10.37,2013-05-25 05:27:00,
2013-05-25 01:32:00,41.7,40.9,29.54,NNE,17,1.8,3.5,97,0.00,CLR,SCT,0.00,WeatherDisplay:10.37,2013-05-25 05:32:00,
2013-05-25 01:37:00,41.7,40.9,29.54,NNW,331,2.1,4.6,97,0.00,CLR,SCT,0.00,WeatherDisplay:10.37,2013-05-25 05:37:00,
2013-05-25 01:42:00,41.7,40.9,29.54,NNW,338,1.9,3.5,97,0.00,CLR,SCT,0.00,WeatherDisplay:10.37,2013-05-25 05:42:00,
2013-05-25 01:47:00,41.6,40.8,29.53,NNW,334,3.1,5.0,97,0.00,CLR,SCT,0.00,WeatherDisplay:10.37,2013-05-25 05:47:00,
2013-05-25 01:52:00,41.6,40.8,29.52,NNW,329,3.3,6.0,97,0.00,CLR,SCT,0.00,WeatherDisplay:10.37,2013-05-25 05:52:00,
2013-05-25 01:57:00,41.6,40.8,29.52,NNE,16,4.4,8.1,97,0.00,CLR,SCT,0.00,WeatherDisplay:10.37,2013-05-25 05:57:00,
2013-05-25 02:02:00,41.6,40.8,29.52,NW,304,4.0,6.9,97,0.00,CLR,SCT,0.00,WeatherDisplay:10.37,2013-05-25 06:02:00,
2013-05-25 02:07:00,41.5,40.7,29.52,NNW,342,3.0,4.6,97,0.00,CLR,SCT,0.00,WeatherDisplay:10.37,2013-05-25 06:07:00,
2013-05-25 02:12:00,41.5,40.7,29.52,NNW,343,2.7,3.5,97,0.00,CLR,SCT,0.00,WeatherDisplay:10.37,2013-05-25 06:12:00,
2013-05-25 02:17:00,41.5,40.7,29.52,NW,321,1.5,4.6,97,0.00,CLR,SCT,0.00,WeatherDisplay:10.37,2013-05-25 06:17:00,
2013-05-25 02:22:00,41.5,40.7,29.51,NNW,331,1.9,4.6,97,0.00,CLR,SCT,0.00,WeatherDisplay:10.37,2013-05-25 06:22:00,
2013-05-25 02:27:00,41.5,40.7,29.51,NW,324,1.7,4.0,97,0.00,CLR,SCT,0.00,WeatherDisplay:10.37,2013-05-25 06:27:00,
2013-05-25 02:32:00,41.5,41.0,29.51,WSW,254,2.1,3.5,98,0.00,CLR,SCT,0.00,WeatherDisplay:10.37,2013-05-25 06:32:00,
2013-05-25 02:37:00,41.5,41.0,29.51,WNW,288,2.2,4.6,98,0.00,CLR,SCT,0.00,WeatherDisplay:10.37,2013-05-25 06:37:00,
2013-05-25 02:42:00,41.4,40.6,29.51,WNW,300,1.7,3.5,97,0.00,CLR,SCT,0.00,WeatherDisplay:10.37,2013-05-25 06:42:00,
2013-05-25 02:47:00,41.4,40.6,29.50,WNW,303,1.6,3.5,97,0.00,CLR,SCT,0.00,WeatherDisplay:10.37,2013-05-25 06:47:00,
2013-05-25 02:52:00,41.4,40.9,29.50,NW,325,4.1,6.9,98,0.00,CLR,SCT,0.00,WeatherDisplay:10.37,2013-05-25 06:52:00,
2013-05-25 02:57:00,41.3,40.5,29.50,NW,311,2.2,3.5,97,0.00,CLR,SCT,0.00,WeatherDisplay:10.37,2013-05-25 06:57:00,
2013-05-25 03:02:00,41.4,40.6,29.50,North,5,3.6,6.9,97,0.00,CLR,SCT,0.00,WeatherDisplay:10.37,2013-05-25 07:02:00,
2013-05-25 03:07:00,41.5,41.0,29.50,WNW,303,1.4,3.5,98,0.00,CLR,SCT,0.00,WeatherDisplay:10.37,2013-05-25 07:07:00,
2013-05-25 03:12:00,41.5,41.0,29.50,NW,317,1.8,5.0,98,0.00,CLR,SCT,0.00,WeatherDisplay:10.37,2013-05-25 07:12:00,
2013-05-25 03:17:00,41.5,41.0,29.50,North,360,2.1,5.0,98,0.00,CLR,SCT,0.00,WeatherDisplay:10.37,2013-05-25 07:17:00,
2013-05-25 03:22:00,41.6,41.1,29.50,NW,305,1.5,4.6,98,0.00,CLR,SCT,0.00,WeatherDisplay:10.37,2013-05-25 07:22:00,
2013-05-25 03:27:00,41.6,41.1,29.50,North,9,1.3,3.5,98,0.00,CLR,SCT,0.00,WeatherDisplay:10.37,2013-05-25 07:27:00,
2013-05-25 03:32:00,41.6,41.1,29.50,NW,316,1.4,3.0,98,0.00,CLR,SCT,0.00,WeatherDisplay:10.37,2013-05-25 07:32:00,
2013-05-25 03:37:00,41.6,41.1,29.50,WNW,286,1.8,2.3,98,0.00,CLR,SCT,0.00,WeatherDisplay:10.37,2013-05-25 07:37:00,
2013-05-25 03:42:00,41.6,41.1,29.50,North,355,2.7,4.6,98,0.00,CLR,SCT,0.00,WeatherDisplay:10.37,2013-05-25 07:42:00,
2013-05-25 03:47:00,41.5,41.0,29.50,NNW,333,2.2,4.0,98,0.00,CLR,SCT,0.00,WeatherDisplay:10.37,2013-05-25 07:47:00,
2013-05-25 03:52:00,41.6,41.1,29.50,NE,40,4.0,4.6,98,0.00,CLR,SCT,0.00,WeatherDisplay:10.37,2013-05-25 07:52:00,
2013-05-25 03:57:00,41.5,41.0,29.51,NW,304,1.6,5.8,98,0.00,CLR,SCT,0.00,WeatherDisplay:10.37,2013-05-25 07:57:00,
2013-05-25 04:02:00,41.6,41.1,29.51,NNW,333,1.4,3.5,98,0.00,CLR,SCT,0.00,WeatherDisplay:10.37,2013-05-25 08:02:00,
2013-05-25 04:07:00,41.6,41.1,29.51,NNW,340,2.2,5.0,98,0.00,CLR,SCT,0.00,WeatherDisplay:10.37,2013-05-25 08:07:00,
2013-05-25 04:12:00,41.6,41.1,29.51,NW,315,1.4,2.3,98,0.00,CLR,SCT,0.00,WeatherDisplay:10.37,2013-05-25 08:12:00,
2013-05-25 04:17:00,41.6,41.1,29.51,NNW,336,2.2,5.0,98,0.00,CLR,SCT,0.01,WeatherDisplay:10.37,2013-05-25 08:17:00,
2013-05-25 04:22:00,41.5,41.0,29.51,North,350,3.0,4.0,98,0.01,RA,SCT,0.01,WeatherDisplay:10.37,2013-05-25 08:22:00,
2013-05-25 04:27:00,41.4,40.6,29.51,NNW,342,2.2,2.3,97,0.01,RA,SCT,0.02,WeatherDisplay:10.37,2013-05-25 08:27:00,
2013-05-25 04:32:00,41.4,40.9,29.51,NNE,26,1.5,6.9,98,0.02,RA,SCT,0.02,WeatherDisplay:10.37,2013-05-25 08:32:00,
2013-05-25 04:37:00,41.4,40.9,29.51,North,5,2.2,6.9,98,0.02,RA,SCT,0.02,WeatherDisplay:10.37,2013-05-25 08:37:00,
2013-05-25 04:42:00,41.4,40.9,29.51,NW,306,1.5,3.0,98,0.02,CLR,SCT,0.02,WeatherDisplay:10.37,2013-05-25 08:42:00,
2013-05-25 04:47:00,41.3,40.8,29.51,NNW,347,1.1,2.3,98,0.02,CLR,SCT,0.02,WeatherDisplay:10.37,2013-05-25 08:47:00,
2013-05-25 04:52:00,41.3,40.8,29.51,WNW,300,1.4,4.0,98,0.02,CLR,SCT,0.02,WeatherDisplay:10.37,2013-05-25 08:52:00,
2013-05-25 04:56:00,41.4,40.9,29.51,WNW,299,1.7,3.5,98,0.02,CLR,SCT,0.02,WeatherDisplay:10.37,2013-05-25 08:56:00,
2013-05-25 05:01:00,41.3,40.8,29.51,NNW,346,2.6,3.5,98,0.03,RA,SCT,0.03,WeatherDisplay:10.37,2013-05-25 09:01:00,
2013-05-25 05:06:00,41.3,40.8,29.51,North,355,2.4,3.0,98,0.03,RA,SCT,0.03,WeatherDisplay:10.37,2013-05-25 09:06:00,
2013-05-25 05:11:00,41.1,40.6,29.51,NNE,18,1.9,3.5,98,0.04,RA,SCT,0.04,WeatherDisplay:10.37,2013-05-25 09:11:00,
2013-05-25 05:16:00,41.2,40.7,29.51,NNW,327,1.1,2.3,98,0.04,RA,SCT,0.04,WeatherDisplay:10.37,2013-05-25 09:16:00,
2013-05-25 05:21:00,41.1,40.6,29.51,NW,325,2.2,4.0,98,0.03,,SCT,0.04,WeatherDisplay:10.37,2013-05-25 09:21:00,
2013-05-25 05:26:00,41.0,40.5,29.51,NNW,331,1.5,4.6,98,0.04,RA,SCT,0.05,WeatherDisplay:10.37,2013-05-25 09:26:00,
2013-05-25 05:31:00,41.1,40.6,29.51,NW,321,2.2,4.0,98,0.03,RA,SCT,0.06,WeatherDisplay:10.37,2013-05-25 09:31:00,
2013-05-25 05:36:00,41.0,40.5,29.51,NW,325,1.0,3.5,98,0.04,RA,SCT,0.06,WeatherDisplay:10.37,2013-05-25 09:36:00,
2013-05-25 05:41:00,41.0,40.5,29.51,NNW,344,3.9,6.9,98,0.04,RA,SCT,0.07,WeatherDisplay:10.37,2013-05-25 09:41:00,
2013-05-25 05:46:00,41.0,40.5,29.51,NW,312,3.7,4.6,98,0.05,RA,SCT,0.08,WeatherDisplay:10.37,2013-05-25 09:46:00,
2013-05-25 05:51:00,41.0,40.5,29.51,NNW,348,1.5,4.6,98,0.06,RA,SCT,0.08,WeatherDisplay:10.37,2013-05-25 09:51:00,
2013-05-25 05:56:00,41.0,40.5,29.52,NW,312,1.3,4.6,98,0.07,RA,SCT,0.10,WeatherDisplay:10.37,2013-05-25 09:56:00,
2013-05-25 06:01:00,40.9,40.4,29.52,North,349,1.4,4.6,98,0.07,RA,SCT,0.10,WeatherDisplay:10.37,2013-05-25 10:01:00,
2013-05-25 06:06:00,41.0,40.5,29.52,NE,40,1.2,2.3,98,0.08,RA,SCT,0.11,WeatherDisplay:10.37,2013-05-25 10:06:00,
2013-05-25 06:11:00,41.0,40.5,29.52,WNW,286,0.9,1.1,98,0.08,RA,SCT,0.12,WeatherDisplay:10.37,2013-05-25 10:11:00,
2013-05-25 06:16:00,41.0,40.7,29.52,West,281,2.7,8.0,99,0.08,RA,SCT,0.12,WeatherDisplay:10.37,2013-05-25 10:16:00,
2013-05-25 06:21:00,40.9,40.6,29.53,NE,38,2.0,4.6,99,0.08,CLR,SCT,0.12,WeatherDisplay:10.37,2013-05-25 10:21:00,
2013-05-25 06:26:00,40.9,40.6,29.53,NW,315,4.1,4.6,99,0.08,RA,SCT,0.13,WeatherDisplay:10.37,2013-05-25 10:26:00,
2013-05-25 06:31:00,40.8,40.3,29.53,NNW,327,3.3,3.5,98,0.09,RA,SCT,0.14,WeatherDisplay:10.37,2013-05-25 10:31:00,
2013-05-25 06:36:00,40.8,40.3,29.53,WNW,282,1.8,3.5,98,0.08,RA,SCT,0.15,WeatherDisplay:10.37,2013-05-25 10:36:00,
2013-05-25 06:41:00,40.9,40.4,29.53,NW,322,2.1,3.5,98,0.10,RA,SCT,0.16,WeatherDisplay:10.37,2013-05-25 10:41:00,
2013-05-25 06:46:00,40.9,40.4,29.53,NNE,32,2.8,3.0,98,0.10,RA,SCT,0.17,WeatherDisplay:10.37,2013-05-25 10:46:00,
2013-05-25 06:51:00,40.9,40.6,29.53,NW,308,1.0,3.5,99,0.10,RA,SCT,0.18,WeatherDisplay:10.37,2013-05-25 10:51:00,
2013-05-25 06:56:00,40.8,40.3,29.53,WNW,294,0.9,3.5,98,0.09,RA,SCT,0.18,WeatherDisplay:10.37,2013-05-25 10:56:00,
2013-05-25 07:01:00,40.9,40.6,29.53,North,5,2.6,5.0,99,0.08,,SCT,0.18,WeatherDisplay:10.37,2013-05-25 11:01:00,
2013-05-25 07:06:00,40.7,40.4,29.53,SW,229,1.6,5.8,99,0.08,RA,SCT,0.19,WeatherDisplay:10.37,2013-05-25 11:06:00,
2013-05-25 07:11:00,40.7,40.2,29.53,WNW,297,1.5,3.5,98,0.07,RA,SCT,0.19,WeatherDisplay:10.37,2013-05-25 11:11:00,
2013-05-25 07:16:00,40.6,40.1,29.53,NNE,19,2.7,4.0,98,0.08,RA,SCT,0.20,WeatherDisplay:10.37,2013-05-25 11:16:00,
2013-05-25 07:21:00,40.5,40.0,29.53,North,355,3.6,8.0,98,0.08,RA,SCT,0.20,WeatherDisplay:10.37,2013-05-25 11:21:00,
2013-05-25 07:26:00,40.4,39.9,29.53,NNW,342,4.6,6.0,98,0.07,CLR,SCT,0.20,WeatherDisplay:10.37,2013-05-25 11:26:00,
2013-05-25 07:31:00,40.4,39.9,29.53,NW,316,3.3,6.9,98,0.06,CLR,SCT,0.20,WeatherDisplay:10.37,2013-05-25 11:31:00,
2013-05-25 07:36:00,40.4,39.9,29.53,NW,310,4.0,4.6,98,0.07,RA,SCT,0.21,WeatherDisplay:10.37,2013-05-25 11:36:00,
2013-05-25 07:41:00,40.4,39.9,29.53,NNW,340,1.8,5.8,98,0.05,RA,SCT,0.21,WeatherDisplay:10.37,2013-05-25 11:41:00,
2013-05-25 07:46:00,40.3,39.8,29.54,North,355,3.7,8.1,98,0.04,CLR,SCT,0.21,WeatherDisplay:10.37,2013-05-25 11:46:00,
2013-05-25 07:51:00,40.4,39.9,29.53,NNW,348,1.8,4.6,98,0.03,CLR,SCT,0.21,WeatherDisplay:10.37,2013-05-25 11:51:00,
2013-05-25 07:56:00,40.4,39.9,29.54,WNW,293,3.6,8.1,98,0.03,CLR,SCT,0.21,WeatherDisplay:10.37,2013-05-25 11:56:00,
2013-05-25 08:01:00,40.2,39.7,29.54,South,170,2.2,5.0,98,0.03,CLR,SCT,0.21,WeatherDisplay:10.37,2013-05-25 12:01:00,
2013-05-25 08:06:00,40.1,39.6,29.54,NNE,16,4.5,9.2,98,0.02,CLR,SCT,0.21,WeatherDisplay:10.37,2013-05-25 12:06:00,
2013-05-25 08:11:00,40.1,39.6,29.54,NNE,13,2.1,6.9,98,0.03,RA,SCT,0.22,WeatherDisplay:10.37,2013-05-25 12:11:00,
2013-05-25 08:16:00,39.9,39.4,29.54,WNW,289,2.6,4.6,98,0.02,RA,SCT,0.22,WeatherDisplay:10.37,2013-05-25 12:16:00,
2013-05-25 08:21:00,39.8,39.0,29.54,WNW,296,4.6,5.8,97,0.02,,SCT,0.22,WeatherDisplay:10.37,2013-05-25 12:21:00,
2013-05-25 08:26:00,39.8,39.0,29.54,ENE,69,3.7,5.8,97,0.02,CLR,SCT,0.22,WeatherDisplay:10.37,2013-05-25 12:26:00,
2013-05-25 08:31:00,39.8,39.0,29.54,WSW,246,1.9,5.8,97,0.02,CLR,SCT,0.22,WeatherDisplay:10.37,2013-05-25 12:31:00,
2013-05-25 08:36:00,39.8,39.0,29.54,NNE,31,2.0,6.0,97,0.01,CLR,SCT,0.22,WeatherDisplay:10.37,2013-05-25 12:36:00,
2013-05-25 08:41:00,39.9,39.4,29.54,NW,316,1.9,5.8,98,0.01,CLR,SCT,0.22,WeatherDisplay:10.37,2013-05-25 12:41:00,
2013-05-25 08:46:00,40.0,39.5,29.54,NNW,331,1.9,4.6,98,0.01,CLR,SCT,0.22,WeatherDisplay:10.37,2013-05-25 12:46:00,
2013-05-25 08:51:00,40.0,39.5,29.54,NNW,343,3.2,5.8,98,0.01,CLR,SCT,0.22,WeatherDisplay:10.37,2013-05-25 12:51:00,
2013-05-25 08:56:00,40.1,39.3,29.54,NW,317,3.9,10.4,97,0.02,RA,SCT,0.23,WeatherDisplay:10.37,2013-05-25 12:56:00,
2013-05-25 09:01:00,40.2,39.4,29.54,SSW,213,3.0,6.9,97,0.02,RA,SCT,0.23,WeatherDisplay:10.37,2013-05-25 13:01:00,
2013-05-25 09:06:00,40.4,39.9,29.54,NW,325,3.0,3.5,98,0.02,,SCT,0.23,WeatherDisplay:10.37,2013-05-25 13:06:00,
2013-05-25 09:11:00,40.4,39.6,29.54,WSW,251,2.5,4.6,97,0.01,CLR,SCT,0.24,WeatherDisplay:10.37,2013-05-25 13:11:00,
2013-05-25 09:16:00,40.6,40.1,29.54,West,265,2.4,5.8,98,0.02,RA,SCT,0.24,WeatherDisplay:10.37,2013-05-25 13:16:00,
2013-05-25 09:21:00,40.7,40.2,29.53,NW,307,4.6,4.6,98,0.02,RA,SCT,0.24,WeatherDisplay:10.37,2013-05-25 13:21:00,
2013-05-25 09:26:00,40.8,40.3,29.53,WNW,297,1.6,6.9,98,0.02,CLR,SCT,0.24,WeatherDisplay:10.37,2013-05-25 13:26:00,
2013-05-25 09:31:00,41.0,40.5,29.53,North,355,3.4,3.5,98,0.02,CLR,SCT,0.25,WeatherDisplay:10.37,2013-05-25 13:31:00,
2013-05-25 09:36:00,41.0,40.5,29.53,NNW,329,2.9,6.9,98,0.03,RA,SCT,0.25,WeatherDisplay:10.37,2013-05-25 13:36:00,
2013-05-25 09:41:00,41.1,40.6,29.53,WNW,303,3.5,4.6,98,0.03,RA,SCT,0.25,WeatherDisplay:10.37,2013-05-25 13:41:00,
2013-05-25 09:46:00,41.1,40.6,29.53,NNW,336,2.1,2.3,98,0.04,RA,SCT,0.26,WeatherDisplay:10.37,2013-05-25 13:46:00,
2013-05-25 09:51:00,41.3,40.8,29.53,West,268,2.5,6.0,98,0.04,RA,SCT,0.26,WeatherDisplay:10.37,2013-05-25 13:51:00,
2013-05-25 09:56:00,41.4,40.9,29.53,North,360,2.2,3.5,98,0.03,,SCT,0.26,WeatherDisplay:10.37,2013-05-25 13:56:00,
2013-05-25 10:01:00,41.6,41.1,29.53,NW,321,2.8,4.6,98,0.03,CLR,SCT,0.26,WeatherDisplay:10.37,2013-05-25 14:01:00,
2013-05-25 10:06:00,41.8,41.3,29.53,NNE,17,2.0,3.5,98,0.04,RA,SCT,0.27,WeatherDisplay:10.37,2013-05-25 14:06:00,
2013-05-25 10:11:00,42.0,41.5,29.52,NNE,15,2.9,3.5,98,0.04,RA,SCT,0.27,WeatherDisplay:10.37,2013-05-25 14:11:00,
2013-05-25 10:16:00,42.0,41.5,29.52,WNW,294,3.6,5.8,98,0.03,,SCT,0.27,WeatherDisplay:10.37,2013-05-25 14:16:00,
2013-05-25 10:21:00,42.0,41.5,29.52,NNW,342,2.2,8.1,98,0.03,CLR,SCT,0.27,WeatherDisplay:10.37,2013-05-25 14:21:00,
2013-05-25 10:26:00,42.1,41.6,29.52,NW,320,2.3,6.9,98,0.03,CLR,SCT,0.27,WeatherDisplay:10.37,2013-05-25 14:26:00,
2013-05-25 10:31:00,42.2,41.7,29.52,NNW,333,2.5,4.6,98,0.03,CLR,SCT,0.27,WeatherDisplay:10.37,2013-05-25 14:31:00,
2013-05-25 10:36:00,42.4,41.9,29.52,WNW,301,2.0,6.9,98,0.02,CLR,SCT,0.27,WeatherDisplay:10.37,2013-05-25 14:36:00,
2013-05-25 10:41:00,42.5,42.0,29.52,North,349,2.7,6.9,98,0.02,CLR,SCT,0.27,WeatherDisplay:10.37,2013-05-25 14:41:00,
2013-05-25 10:46:00,42.5,42.0,29.52,NE,51,2.9,8.0,98,0.01,CLR,SCT,0.27,WeatherDisplay:10.37,2013-05-25 14:46:00,
2013-05-25 10:51:00,42.6,42.1,29.52,WNW,303,2.5,5.0,98,0.02,RA,SCT,0.28,WeatherDisplay:10.37,2013-05-25 14:51:00,
2013-05-25 10:56:00,42.8,42.3,29.52,NW,310,2.8,9.2,98,0.02,RA,SCT,0.28,WeatherDisplay:10.37,2013-05-25 14:56:00,
2013-05-25 11:01:00,42.9,42.4,29.52,NNW,335,4.8,4.8,98,0.02,CLR,SCT,0.28,WeatherDisplay:10.37,2013-05-25 15:01:00,
2013-05-25 11:06:00,43.1,42.6,29.52,NW,311,1.8,3.5,98,0.01,CLR,SCT,0.28,WeatherDisplay:10.37,2013-05-25 15:06:00,
2013-05-25 11:11:00,43.1,42.6,29.52,NW,314,3.9,6.9,98,0.01,CLR,SCT,0.28,WeatherDisplay:10.37,2013-05-25 15:11:00,
2013-05-25 11:16:00,43.1,42.6,29.52,NW,309,2.3,9.2,98,0.01,CLR,SCT,0.28,WeatherDisplay:10.37,2013-05-25 15:16:00,
2013-05-25 11:21:00,43.1,42.3,29.53,NE,49,1.5,5.8,97,0.01,CLR,SCT,0.28,WeatherDisplay:10.37,2013-05-25 15:21:00,
2013-05-25 11:26:00,43.1,42.3,29.52,NW,313,3.5,10.4,97,0.01,CLR,SCT,0.28,WeatherDisplay:10.37,2013-05-25 15:26:00,
2013-05-25 11:31:00,43.2,42.4,29.53,NW,321,2.2,4.6,97,0.01,CLR,SCT,0.28,WeatherDisplay:10.37,2013-05-25 15:31:00,
2013-05-25 11:36:00,43.3,42.5,29.53,NNW,331,2.1,2.3,97,0.01,CLR,SCT,0.28,WeatherDisplay:10.37,2013-05-25 15:36:00,
2013-05-25 11:41:00,43.4,42.6,29.52,NE,53,5.9,10.0,97,0.01,CLR,SCT,0.28,WeatherDisplay:10.37,2013-05-25 15:41:00,
2013-05-25 11:46:00,43.2,42.4,29.53,North,350,3.6,6.9,97,0.02,RA,SCT,0.29,WeatherDisplay:10.37,2013-05-25 15:46:00,
2013-05-25 11:51:00,43.3,42.5,29.53,NW,304,3.2,9.2,97,0.01,RA,SCT,0.29,WeatherDisplay:10.37,2013-05-25 15:51:00,
2013-05-25 11:56:00,43.3,42.5,29.53,NW,311,2.2,5.8,97,0.01,CLR,SCT,0.29,WeatherDisplay:10.37,2013-05-25 15:56:00,
2013-05-25 12:01:00,43.4,42.6,29.53,NW,304,3.3,8.1,97,0.02,RA,SCT,0.30,WeatherDisplay:10.37,2013-05-25 16:01:00,
2013-05-25 12:06:00,43.3,42.2,29.53,East,82,3.8,9.0,96,0.02,RA,SCT,0.30,WeatherDisplay:10.37,2013-05-25 16:06:00,
2013-05-25 12:11:00,43.3,42.2,29.53,WNW,296,4.0,12.7,96,0.02,,SCT,0.30,WeatherDisplay:10.37,2013-05-25 16:11:00,
2013-05-25 12:16:00,43.3,42.2,29.52,NW,318,5.6,11.5,96,0.02,CLR,SCT,0.30,WeatherDisplay:10.37,2013-05-25 16:16:00,
2013-05-25 12:21:00,43.3,42.2,29.53,West,280,2.9,4.6,96,0.02,CLR,SCT,0.30,WeatherDisplay:10.37,2013-05-25 16:21:00,
2013-05-25 12:26:00,43.3,42.5,29.53,NNW,336,3.8,8.1,97,0.03,RA,SCT,0.31,WeatherDisplay:10.37,2013-05-25 16:26:00,
2013-05-25 12:31:00,43.3,42.5,29.53,NE,44,2.8,5.8,97,0.03,RA,SCT,0.31,WeatherDisplay:10.37,2013-05-25 16:31:00,
2013-05-25 12:36:00,43.1,42.0,29.53,NW,321,3.5,6.9,96,0.03,,SCT,0.31,WeatherDisplay:10.37,2013-05-25 16:36:00,
2013-05-25 12:41:00,43.1,42.0,29.53,North,11,4.8,11.5,96,0.03,CLR,SCT,0.31,WeatherDisplay:10.37,2013-05-25 16:41:00,
2013-05-25 12:46:00,43.0,41.9,29.53,NNW,333,2.3,5.8,96,0.02,CLR,SCT,0.31,WeatherDisplay:10.37,2013-05-25 16:46:00,
2013-05-25 12:51:00,43.2,42.4,29.53,North,360,3.3,6.9,97,0.02,CLR,SCT,0.31,WeatherDisplay:10.37,2013-05-25 16:51:00,
2013-05-25 12:56:00,43.3,42.5,29.53,NW,317,4.5,10.4,97,0.02,CLR,SCT,0.31,WeatherDisplay:10.37,2013-05-25 16:56:00,
2013-05-25 13:01:00,43.3,42.5,29.53,WSW,251,4.9,12.0,97,0.02,RA,SCT,0.32,WeatherDisplay:10.37,2013-05-25 17:01:00,
2013-05-25 13:06:00,43.4,42.6,29.53,NW,309,3.5,5.0,97,0.02,RA,SCT,0.32,WeatherDisplay:10.37,2013-05-25 17:06:00,
2013-05-25 13:11:00,43.3,42.5,29.53,NW,312,3.0,4.6,97,0.03,RA,SCT,0.33,WeatherDisplay:10.37,2013-05-25 17:11:00,
2013-05-25 13:16:00,43.3,42.5,29.53,WNW,298,3.0,7.0,97,0.04,RA,SCT,0.34,WeatherDisplay:10.37,2013-05-25 17:16:00,
2013-05-25 13:21:00,43.1,42.3,29.53,West,277,4.6,6.0,97,0.04,RA,SCT,0.34,WeatherDisplay:10.37,2013-05-25 17:21:00,
2013-05-25 13:26:00,42.9,42.1,29.53,NNW,338,2.7,11.5,97,0.04,RA,SCT,0.35,WeatherDisplay:10.37,2013-05-25 17:26:00,
2013-05-25 13:31:00,42.7,41.9,29.53,NW,326,3.4,8.1,97,0.04,RA,SCT,0.35,WeatherDisplay:10.37,2013-05-25 17:31:00,
2013-05-25 13:36:00,42.6,41.8,29.53,NNW,336,4.6,5.8,97,0.05,RA,SCT,0.36,WeatherDisplay:10.37,2013-05-25 17:36:00,
2013-05-25 13:41:00,42.4,41.6,29.53,NW,322,1.9,4.6,97,0.05,RA,SCT,0.36,WeatherDisplay:10.37,2013-05-25 17:41:00,
2013-05-25 13:46:00,42.5,41.7,29.53,WNW,300,3.6,8.1,97,0.05,CLR,SCT,0.36,WeatherDisplay:10.37,2013-05-25 17:46:00,
2013-05-25 13:51:00,42.7,41.9,29.52,NW,320,4.1,8.0,97,0.05,CLR,SCT,0.36,WeatherDisplay:10.37,2013-05-25 17:51:00,
2013-05-25 13:56:00,42.7,41.9,29.53,NNW,331,3.5,5.8,97,0.05,CLR,SCT,0.36,WeatherDisplay:10.37,2013-05-25 17:56:00,
2013-05-25 14:01:00,42.8,42.0,29.53,NW,316,3.7,9.2,97,0.04,CLR,SCT,0.36,WeatherDisplay:10.37,2013-05-25 18:01:00,
2013-05-25 14:06:00,43.1,42.3,29.53,NNW,328,2.0,4.6,97,0.05,RA,SCT,0.37,WeatherDisplay:10.37,2013-05-25 18:06:00,
2013-05-25 14:11:00,43.0,42.2,29.53,NW,309,4.6,6.0,97,0.04,RA,SCT,0.37,WeatherDisplay:10.37,2013-05-25 18:11:00,
2013-05-25 14:16:00,42.9,42.1,29.53,NW,310,4.2,11.5,97,0.03,CLR,SCT,0.37,WeatherDisplay:10.37,2013-05-25 18:16:00,
2013-05-25 14:21:00,43.1,42.3,29.53,NNW,335,2.2,6.0,97,0.03,CLR,SCT,0.37,WeatherDisplay:10.37,2013-05-25 18:21:00,
2013-05-25 14:26:00,43.2,42.4,29.53,WNW,288,2.9,4.0,97,0.03,RA,SCT,0.38,WeatherDisplay:10.37,2013-05-25 18:26:00,
2013-05-25 14:31:00,43.0,42.2,29.53,WNW,286,2.6,6.9,97,0.03,RA,SCT,0.38,WeatherDisplay:10.37,2013-05-25 18:31:00,
2013-05-25 14:36:00,42.9,42.1,29.53,North,355,2.6,4.6,97,0.02,,SCT,0.38,WeatherDisplay:10.37,2013-05-25 18:36:00,
2013-05-25 14:41:00,42.9,42.1,29.53,WNW,302,3.9,8.1,97,0.02,CLR,SCT,0.38,WeatherDisplay:10.37,2013-05-25 18:41:00,
2013-05-25 14:46:00,43.0,42.2,29.53,WNW,298,2.6,9.2,97,0.02,CLR,SCT,0.38,WeatherDisplay:10.37,2013-05-25 18:46:00,
2013-05-25 14:51:00,43.2,42.7,29.53,NW,325,5.1,9.2,98,0.02,CLR,SCT,0.38,WeatherDisplay:10.37,2013-05-25 18:51:00,
2013-05-25 14:56:00,43.4,42.9,29.53,WNW,293,1.7,3.5,98,0.02,CLR,SCT,0.38,WeatherDisplay:10.37,2013-05-25 18:56:00,
2013-05-25 15:01:00,43.7,43.2,29.53,NW,320,1.8,3.5,98,0.03,RA,SCT,0.39,WeatherDisplay:10.37,2013-05-25 19:01:00,
2013-05-25 15:06:00,43.7,43.2,29.53,NW,323,3.0,5.8,98,0.02,RA,SCT,0.39,WeatherDisplay:10.37,2013-05-25 19:06:00,
2013-05-25 15:11:00,43.4,42.6,29.54,SW,228,5.1,5.1,97,0.02,,SCT,0.40,WeatherDisplay:10.37,2013-05-25 19:11:00,
2013-05-25 15:16:00,43.3,42.5,29.53,WNW,300,1.7,5.8,97,0.03,RA,SCT,0.40,WeatherDisplay:10.37,2013-05-25 19:16:00,
2013-05-25 15:21:00,43.1,42.3,29.53,WNW,297,1.7,5.8,97,0.03,RA,SCT,0.41,WeatherDisplay:10.37,2013-05-25 19:21:00,
2013-05-25 15:26:00,43.0,42.2,29.54,NE,34,4.3,10.0,97,0.03,RA,SCT,0.41,WeatherDisplay:10.37,2013-05-25 19:26:00,
2013-05-25 15:31:00,42.9,42.1,29.54,NNW,329,2.0,6.9,97,0.04,RA,SCT,0.42,WeatherDisplay:10.37,2013-05-25 19:31:00,
2013-05-25 15:36:00,43.1,42.3,29.54,NNW,337,2.2,3.5,97,0.04,RA,SCT,0.42,WeatherDisplay:10.37,2013-05-25 19:36:00,
2013-05-25 15:41:00,43.0,42.5,29.53,North,5,6.2,11.0,98,0.05,RA,SCT,0.43,WeatherDisplay:10.37,2013-05-25 19:41:00,
2013-05-25 15:46:00,42.7,41.9,29.54,NW,307,5.1,6.9,97,0.06,RA,SCT,0.44,WeatherDisplay:10.37,2013-05-25 19:46:00,
2013-05-25 15:51:00,42.6,41.8,29.54,NW,309,3.3,5.8,97,0.07,RA,SCT,0.45,WeatherDisplay:10.37,2013-05-25 19:51:00,
2013-05-25 15:56:00,42.5,41.7,29.54,WNW,296,2.9,5.8,97,0.08,RA,SCT,0.46,WeatherDisplay:10.37,2013-05-25 19:56:00,
2013-05-25 16:01:00,42.4,41.6,29.54,NNW,347,4.6,8.1,97,0.07,RA,SCT,0.46,WeatherDisplay:10.37,2013-05-25 20:01:00,
2013-05-25 16:06:00,42.4,41.6,29.55,NW,319,4.6,9.0,97,0.07,,SCT,0.47,WeatherDisplay:10.37,2013-05-25 20:06:00,
2013-05-25 16:11:00,42.4,41.6,29.55,West,259,4.6,9.2,97,0.08,RA,SCT,0.47,WeatherDisplay:10.37,2013-05-25 20:11:00,
2013-05-25 16:16:00,42.4,41.6,29.54,NW,308,4.3,5.8,97,0.07,RA,SCT,0.47,WeatherDisplay:10.37,2013-05-25 20:16:00,
2013-05-25 16:21:00,42.4,41.6,29.55,NNW,331,3.4,9.2,97,0.08,RA,SCT,0.48,WeatherDisplay:10.37,2013-05-25 20:21:00,
2013-05-25 16:26:00,42.4,41.6,29.55,NW,317,4.7,5.8,97,0.07,RA,SCT,0.48,WeatherDisplay:10.37,2013-05-25 20:26:00,
2013-05-25 16:31:00,42.3,41.5,29.54,WNW,292,2.5,4.6,97,0.06,CLR,SCT,0.48,WeatherDisplay:10.37,2013-05-25 20:31:00,
2013-05-25 16:36:00,42.2,41.4,29.55,NW,311,5.3,5.3,97,0.07,RA,SCT,0.49,WeatherDisplay:10.37,2013-05-25 20:36:00,
2013-05-25 16:41:00,42.1,41.3,29.55,ENE,67,8.0,8.0,97,0.06,RA,SCT,0.49,WeatherDisplay:10.37,2013-05-25 20:41:00,
2013-05-25 16:46:00,42.1,41.3,29.55,SE,134,4.2,5.8,97,0.05,CLR,SCT,0.50,WeatherDisplay:10.37,2013-05-25 20:46:00,
2013-05-25 16:51:00,42.1,41.3,29.55,NW,309,3.1,5.8,97,0.05,RA,SCT,0.50,WeatherDisplay:10.37,2013-05-25 20:51:00,
2013-05-25 16:56:00,42.0,41.2,29.55,NW,305,2.3,5.8,97,0.04,RA,SCT,0.50,WeatherDisplay:10.37,2013-05-25 20:56:00,
2013-05-25 17:01:00,41.9,41.1,29.55,NNW,345,5.6,10.0,97,0.05,RA,SCT,0.51,WeatherDisplay:10.37,2013-05-25 21:01:00,
2013-05-25 17:06:00,41.8,41.0,29.55,WNW,302,6.9,10.4,97,0.05,RA,SCT,0.52,WeatherDisplay:10.37,2013-05-25 21:06:00,
2013-05-25 17:11:00,41.8,41.0,29.56,NW,315,5.2,7.0,97,0.05,RA,SCT,0.52,WeatherDisplay:10.37,2013-05-25 21:11:00,
2013-05-25 17:16:00,41.8,41.0,29.56,NNE,17,4.8,9.2,97,0.06,RA,SCT,0.53,WeatherDisplay:10.37,2013-05-25 21:16:00,
2013-05-25 17:21:00,41.6,40.8,29.56,NNE,28,3.7,11.5,97,0.05,RA,SCT,0.53,WeatherDisplay:10.37,2013-05-25 21:21:00,
2013-05-25 17:26:00,41.6,40.8,29.56,NW,306,3.4,8.1,97,0.06,RA,SCT,0.54,WeatherDisplay:10.37,2013-05-25 21:26:00,
2013-05-25 17:31:00,41.6,40.8,29.55,WNW,287,2.2,12.7,97,0.06,RA,SCT,0.54,WeatherDisplay:10.37,2013-05-25 21:31:00,
2013-05-25 17:36:00,41.6,40.8,29.55,NNE,13,5.2,9.2,97,0.05,,SCT,0.54,WeatherDisplay:10.37,2013-05-25 21:36:00,
2013-05-25 17:41:00,41.6,40.8,29.55,NW,317,4.3,5.8,97,0.05,CLR,SCT,0.54,WeatherDisplay:10.37,2013-05-25 21:41:00,
2013-05-25 17:46:00,41.6,40.8,29.56,West,263,6.6,12.7,97,0.06,RA,SCT,0.55,WeatherDisplay:10.37,2013-05-25 21:46:00,
2013-05-25 17:51:00,41.8,41.0,29.55,North,355,2.8,5.0,97,0.05,RA,SCT,0.55,WeatherDisplay:10.37,2013-05-25 21:51:00,
2013-05-25 17:56:00,41.9,41.1,29.55,NW,323,2.5,8.1,97,0.05,,SCT,0.55,WeatherDisplay:10.37,2013-05-25 21:56:00,
2013-05-25 18:01:00,42.1,41.3,29.55,North,355,4.2,6.9,97,0.04,CLR,SCT,0.55,WeatherDisplay:10.37,2013-05-25 22:01:00,
2013-05-25 18:06:00,42.1,41.3,29.55,NW,305,4.6,10.4,97,0.04,CLR,SCT,0.55,WeatherDisplay:10.37,2013-05-25 22:06:00,
2013-05-25 18:11:00,42.2,41.4,29.56,WNW,297,3.8,4.0,97,0.03,CLR,SCT,0.55,WeatherDisplay:10.37,2013-05-25 22:11:00,
2013-05-25 18:16:00,42.3,41.5,29.55,NNW,341,3.0,5.0,97,0.02,CLR,SCT,0.55,WeatherDisplay:10.37,2013-05-25 22:16:00,
2013-05-25 18:21:00,42.4,41.6,29.55,NW,321,2.5,4.6,97,0.02,CLR,SCT,0.55,WeatherDisplay:10.37,2013-05-25 22:21:00,
2013-05-25 18:26:00,42.2,41.4,29.55,NNW,344,2.6,8.1,97,0.02,RA,SCT,0.56,WeatherDisplay:10.37,2013-05-25 22:26:00,
2013-05-25 18:31:00,42.1,41.3,29.55,NW,323,3.6,5.8,97,0.02,RA,SCT,0.56,WeatherDisplay:10.37,2013-05-25 22:31:00,
2013-05-25 18:36:00,42.1,41.3,29.55,NNW,333,3.7,10.4,97,0.02,,SCT,0.56,WeatherDisplay:10.37,2013-05-25 22:36:00,
2013-05-25 18:41:00,42.2,41.4,29.56,NNW,340,3.0,4.6,97,0.02,CLR,SCT,0.56,WeatherDisplay:10.37,2013-05-25 22:41:00,
2013-05-25 18:46:00,42.1,41.3,29.56,NNW,333,4.7,7.0,97,0.01,CLR,SCT,0.56,WeatherDisplay:10.37,2013-05-25 22:46:00,
2013-05-25 18:51:00,42.2,41.4,29.56,South,182,4.0,6.0,97,0.01,CLR,SCT,0.56,WeatherDisplay:10.37,2013-05-25 22:51:00,
2013-05-25 18:56:00,42.2,41.4,29.57,NNW,334,4.7,11.5,97,0.01,CLR,SCT,0.56,WeatherDisplay:10.37,2013-05-25 22:56:00,
2013-05-25 19:01:00,42.2,41.4,29.57,SSW,198,2.8,8.1,97,0.01,CLR,SCT,0.56,WeatherDisplay:10.37,2013-05-25 23:01:00,
2013-05-25 19:06:00,42.1,41.3,29.57,WNW,301,2.0,6.0,97,0.01,CLR,SCT,0.56,WeatherDisplay:10.37,2013-05-25 23:06:00,
2013-05-25 19:11:00,42.0,41.2,29.57,WNW,295,3.2,5.8,97,0.01,CLR,SCT,0.56,WeatherDisplay:10.37,2013-05-25 23:11:00,
2013-05-25 19:16:00,42.0,40.9,29.57,SW,227,5.6,15.0,96,0.01,CLR,SCT,0.56,WeatherDisplay:10.37,2013-05-25 23:16:00,
2013-05-25 19:21:00,42.0,40.9,29.56,West,274,3.2,8.1,96,0.01,CLR,SCT,0.56,WeatherDisplay:10.37,2013-05-25 23:21:00,
2013-05-25 19:26:00,42.0,40.9,29.58,SW,219,8.0,9.2,96,0.00,CLR,SCT,0.56,WeatherDisplay:10.37,2013-05-25 23:26:00,
2013-05-25 19:31:00,42.0,40.9,29.57,NW,304,2.5,6.9,96,0.00,CLR,SCT,0.56,WeatherDisplay:10.37,2013-05-25 23:31:00,
2013-05-25 19:36:00,42.0,40.7,29.58,NW,304,5.8,6.0,95,0.00,CLR,SCT,0.56,WeatherDisplay:10.37,2013-05-25 23:36:00,
2013-05-25 19:41:00,42.0,40.7,29.57,WNW,286,4.9,9.2,95,0.00,CLR,SCT,0.56,WeatherDisplay:10.37,2013-05-25 23:41:00,
2013-05-25 19:46:00,42.0,40.7,29.58,WNW,300,3.6,6.9,95,0.00,CLR,SCT,0.56,WeatherDisplay:10.37,2013-05-25 23:46:00,
2013-05-25 19:51:00,42.1,40.8,29.58,NNW,327,3.7,8.1,95,0.00,CLR,SCT,0.56,WeatherDisplay:10.37,2013-05-25 23:51:00,
2013-05-25 19:56:00,42.1,40.5,29.58,North,351,5.8,8.1,94,0.00,CLR,SCT,0.56,WeatherDisplay:10.37,2013-05-25 23:56:00,
2013-05-25 20:01:00,42.1,40.5,29.58,NW,315,3.1,7.0,94,0.00,CLR,SCT,0.56,WeatherDisplay:10.37,2013-05-26 00:01:00,
2013-05-25 20:06:00,42.0,40.4,29.58,NW,308,2.5,9.2,94,0.00,CLR,SCT,0.56,WeatherDisplay:10.37,2013-05-26 00:06:00,
2013-05-25 20:11:00,42.0,40.4,29.58,NW,324,2.8,9.0,94,0.00,CLR,SCT,0.56,WeatherDisplay:10.37,2013-05-26 00:11:00,
2013-05-25 20:16:00,42.0,40.4,29.58,West,269,3.2,5.8,94,0.00,CLR,SCT,0.56,WeatherDisplay:10.37,2013-05-26 00:16:00,
2013-05-25 20:21:00,41.9,40.6,29.58,South,189,5.0,6.9,95,0.00,CLR,SCT,0.56,WeatherDisplay:10.37,2013-05-26 00:21:00,
2013-05-25 20:26:00,41.9,40.3,29.58,NNW,331,4.2,10.4,94,0.00,CLR,SCT,0.56,WeatherDisplay:10.37,2013-05-26 00:26:00,
2013-05-25 20:31:00,42.0,40.1,29.58,WNW,302,2.9,8.0,93,0.00,CLR,SCT,0.56,WeatherDisplay:10.37,2013-05-26 00:31:00,
2013-05-25 20:36:00,42.1,40.2,29.58,ENE,74,2.6,6.9,93,0.00,CLR,SCT,0.56,WeatherDisplay:10.37,2013-05-26 00:36:00,
2013-05-25 20:41:00,42.2,40.3,29.58,West,279,2.5,6.9,93,0.00,CLR,SCT,0.56,WeatherDisplay:10.37,2013-05-26 00:41:00,
2013-05-25 20:46:00,42.2,40.3,29.58,WNW,293,3.2,9.2,93,0.00,CLR,SCT,0.56,WeatherDisplay:10.37,2013-05-26 00:46:00,
2013-05-25 20:51:00,42.3,40.4,29.58,NNW,344,3.8,3.8,93,0.00,CLR,SCT,0.56,WeatherDisplay:10.37,2013-05-26 00:51:00,
2013-05-25 20:56:00,42.3,40.4,29.58,WNW,284,3.3,6.9,93,0.00,CLR,SCT,0.56,WeatherDisplay:10.37,2013-05-26 00:56:00,
2013-05-25 21:01:00,42.3,40.1,29.58,WSW,246,0.9,6.9,92,0.00,CLR,SCT,0.56,WeatherDisplay:10.37,2013-05-26 01:01:00,
2013-05-25 21:06:00,42.4,40.2,29.58,NW,307,1.6,5.0,92,0.00,CLR,SCT,0.56,WeatherDisplay:10.37,2013-05-26 01:06:00,
2013-05-25 21:11:00,42.6,40.2,29.58,WNW,290,3.2,11.5,91,0.00,CLR,SCT,0.56,WeatherDisplay:10.37,2013-05-26 01:11:00,
2013-05-25 21:16:00,42.8,40.1,29.58,NNW,348,4.0,9.0,90,0.00,CLR,SCT,0.56,WeatherDisplay:10.37,2013-05-26 01:16:00,
2013-05-25 21:21:00,42.9,39.9,29.58,NNE,13,5.3,6.9,89,0.00,CLR,SCT,0.56,WeatherDisplay:10.37,2013-05-26 01:21:00,
2013-05-25 21:26:00,42.9,39.9,29.58,West,275,2.8,4.0,89,0.00,CLR,SCT,0.56,WeatherDisplay:10.37,2013-05-26 01:26:00,
2013-05-25 21:31:00,42.8,40.1,29.59,NW,309,5.8,8.1,90,0.00,CLR,SCT,0.56,WeatherDisplay:10.37,2013-05-26 01:31:00,
2013-05-25 21:36:00,42.8,40.1,29.59,NNW,347,3.1,5.8,90,0.00,CLR,SCT,0.56,WeatherDisplay:10.37,2013-05-26 01:36:00,
2013-05-25 21:41:00,42.8,39.5,29.58,NW,305,2.8,11.5,88,0.00,CLR,SCT,0.56,WeatherDisplay:10.37,2013-05-26 01:41:00,
2013-05-25 21:46:00,42.8,40.1,29.58,SW,223,2.2,9.2,90,0.00,CLR,SCT,0.56,WeatherDisplay:10.37,2013-05-26 01:46:00,
2013-05-25 21:51:00,42.7,40.0,29.59,WNW,282,6.2,9.0,90,0.00,CLR,SCT,0.56,WeatherDisplay:10.37,2013-05-26 01:51:00,
2013-05-25 21:56:00,42.4,39.7,29.58,NNE,18,5.2,8.1,90,0.00,CLR,SCT,0.56,WeatherDisplay:10.37,2013-05-26 01:56:00,
2013-05-25 22:01:00,42.3,40.1,29.59,NE,38,5.6,6.0,92,0.00,CLR,SCT,0.56,WeatherDisplay:10.37,2013-05-26 02:01:00,
2013-05-25 22:06:00,42.2,40.0,29.59,West,279,3.7,8.1,92,0.01,RA,SCT,0.57,WeatherDisplay:10.37,2013-05-26 02:06:00,
2013-05-25 22:11:00,42.0,40.1,29.59,WNW,291,1.8,4.6,93,0.02,RA,SCT,0.58,WeatherDisplay:10.37,2013-05-26 02:11:00,
2013-05-25 22:16:00,41.7,40.1,29.59,West,267,3.9,5.8,94,0.02,RA,SCT,0.58,WeatherDisplay:10.37,2013-05-26 02:16:00,
2013-05-25 22:21:00,41.6,40.0,29.59,WSW,242,2.4,6.0,94,0.02,,SCT,0.58,WeatherDisplay:10.37,2013-05-26 02:21:00,
2013-05-25 22:26:00,41.5,40.2,29.59,SW,220,2.7,8.1,95,0.02,CLR,SCT,0.58,WeatherDisplay:10.37,2013-05-26 02:26:00,
2013-05-25 22:31:00,41.4,40.1,29.59,NW,319,3.3,5.8,95,0.02,CLR,SCT,0.59,WeatherDisplay:10.37,2013-05-26 02:31:00,
2013-05-25 22:36:00,41.3,40.0,29.59,SSW,212,2.8,4.6,95,0.03,RA,SCT,0.59,WeatherDisplay:10.37,2013-05-26 02:36:00,
2013-05-25 22:41:00,41.2,39.9,29.58,NNW,344,2.4,5.8,95,0.03,RA,SCT,0.59,WeatherDisplay:10.37,2013-05-26 02:41:00,
2013-05-25 22:46:00,41.1,39.8,29.58,NNW,333,3.5,4.0,95,0.03,CLR,SCT,0.59,WeatherDisplay:10.37,2013-05-26 02:46:00,
2013-05-25 22:51:00,41.1,39.8,29.58,WSW,238,2.7,8.1,95,0.03,CLR,SCT,0.59,WeatherDisplay:10.37,2013-05-26 02:51:00,
2013-05-25 22:56:00,41.1,40.0,29.57,NNW,331,3.9,9.2,96,0.03,CLR,SCT,0.59,WeatherDisplay:10.37,2013-05-26 02:56:00,
2013-05-25 23:01:00,41.0,39.7,29.57,WNW,303,1.8,5.8,95,0.03,CLR,SCT,0.59,WeatherDisplay:10.37,2013-05-26 03:01:00,
2013-05-25 23:06:00,41.0,39.9,29.57,West,281,4.5,5.8,96,0.02,CLR,SCT,0.59,WeatherDisplay:10.37,2013-05-26 03:06:00,
2013-05-25 23:11:00,41.0,39.7,29.56,West,281,4.5,5.8,95,0.01,CLR,SCT,0.59,WeatherDisplay:10.37,2013-05-26 03:11:00,
2013-05-25 23:16:00,40.9,39.6,29.57,WSW,255,1.2,4.6,95,0.01,CLR,SCT,0.59,WeatherDisplay:10.37,2013-05-26 03:16:00,
2013-05-25 23:21:00,40.9,39.6,29.56,NNW,331,4.8,5.8,95,0.01,CLR,SCT,0.59,WeatherDisplay:10.37,2013-05-26 03:21:00,
2013-05-25 23:26:00,40.9,39.6,29.57,WSW,250,2.0,5.0,95,0.01,CLR,SCT,0.59,WeatherDisplay:10.37,2013-05-26 03:26:00,
2013-05-25 23:31:00,40.9,39.6,29.56,WNW,298,1.6,5.0,95,0.01,CLR,SCT,0.59,WeatherDisplay:10.37,2013-05-26 03:31:00,
2013-05-25 23:36:00,40.9,39.3,29.56,SW,236,0.6,8.1,94,0.00,CLR,SCT,0.59,WeatherDisplay:10.37,2013-05-26 03:36:00,
2013-05-25 23:41:00,41.0,39.4,29.57,NW,305,2.8,6.0,94,0.00,CLR,SCT,0.59,WeatherDisplay:10.37,2013-05-26 03:41:00,
2013-05-25 23:46:00,41.1,39.5,29.57,WNW,295,2.1,4.6,94,0.00,CLR,SCT,0.59,WeatherDisplay:10.37,2013-05-26 03:46:00,
2013-05-25 23:51:00,41.2,39.3,29.57,NE,52,3.1,4.6,93,0.00,CLR,SCT,0.59,WeatherDisplay:10.37,2013-05-26 03:51:00,
2013-05-25 23:56:00,41.2,39.3,29.56,West,268,3.7,5.8,93,0.00,CLR,SCT,0.59,WeatherDisplay:10.37,2013-05-26 03:56:00,